Location: Great Falls
(47.5000°N, 111.3000°W)
Time: 07:26:50
(UTC-06:00)

ISS - Pass Details

Date: 27 April 2025
Orbit: 416 x 420 km, 51.6° (Epoch: 15 May)

Event Time Altitude Azimuth Distance (km) Brightness Sun altitude
Exits shadow 05:03:27 13° 271° (W) 1,307 -1.7 -11.3°
Maximum altitude 05:06:14 50° 345° (NNW) 538 -3.1 -10.9°
Drops below altitude 10° 05:09:32 10° 63° (ENE) 1,498 0.6 -10.5°
Sets 05:11:41 0° 69° (ENE) 2,364 1.9 -10.2°
